ICE2712 LFBO-LFLL

Flight info

Callsign ICE2712
Flight time 0h 41m
Altitude 19000
Route FINOT G393 AFRIC/N0328F180 J27 MEN G53 MEZIN
Aircraft A20N/M-SDE2E3FGHIRWXY/LB1

Departure

Time 2026-05-05 19:59
Airport Toulouse-Blagnac Airport (LFBO)

Arrival

Time 2026-05-05 20:40
Airport Lyon Saint-Exupéry Airport (LFLL)
Time Latitude Longitude Altitude Speed Heading
2026-05-05 19:35 43.62867 1.37412 493 ft 0 kts 51°
2026-05-05 19:50 43.62860 1.37400 502 ft 2 kts 58°
2026-05-05 19:50 43.62853 1.37381 502 ft 2 kts 72°
2026-05-05 19:50 43.62850 1.37364 502 ft 0 kts 84°
2026-05-05 19:51 43.62849 1.37353 502 ft 2 kts 92°
2026-05-05 19:51 43.62851 1.37330 502 ft 2 kts 107°
2026-05-05 19:51 43.62860 1.37302 502 ft 4 kts 127°
2026-05-05 19:51 43.62861 1.37300 502 ft 0 kts 128°
2026-05-05 19:53 43.62860 1.37301 502 ft 1 kts 130°
2026-05-05 19:53 43.62846 1.37317 502 ft 4 kts 144°
2026-05-05 19:53 43.62814 1.37347 502 ft 7 kts 145°
2026-05-05 19:53 43.62767 1.37393 502 ft 10 kts 144°
2026-05-05 19:54 43.62704 1.37451 503 ft 12 kts 148°
2026-05-05 19:54 43.62630 1.37439 503 ft 12 kts 215°
2026-05-05 19:54 43.62563 1.37357 503 ft 14 kts 211°
2026-05-05 19:54 43.62477 1.37382 503 ft 14 kts 146°
2026-05-05 19:55 43.62395 1.37465 503 ft 16 kts 140°
2026-05-05 19:55 43.62305 1.37563 503 ft 17 kts 142°
2026-05-05 19:55 43.62205 1.37667 504 ft 19 kts 143°
2026-05-05 19:55 43.62097 1.37780 504 ft 20 kts 143°
2026-05-05 19:56 43.61980 1.37902 504 ft 22 kts 143°
2026-05-05 19:56 43.61855 1.38031 504 ft 23 kts 143°
2026-05-05 19:56 43.61737 1.38146 503 ft 5 kts 151°
2026-05-05 19:56 43.61695 1.38166 503 ft 7 kts 179°
2026-05-05 19:57 43.61646 1.38139 504 ft 8 kts 227°
2026-05-05 19:57 43.61631 1.38116 504 ft 1 kts 229°
2026-05-05 19:57 43.61620 1.38097 504 ft 4 kts 232°
2026-05-05 19:57 43.61596 1.38048 503 ft 8 kts 239°
2026-05-05 19:58 43.61613 1.37972 502 ft 11 kts 315°
2026-05-05 19:58 43.61697 1.37880 503 ft 33 kts 323°
2026-05-05 19:58 43.62077 1.37479 504 ft 102 kts 323°
2026-05-05 19:58 43.62792 1.36736 504 ft 153 kts 322°
2026-05-05 19:59 43.63679 1.35817 932 ft 157 kts 320°
2026-05-05 19:59 43.64485 1.34852 1718 ft 148 kts 316°
2026-05-05 19:59 43.65258 1.33929 2445 ft 149 kts 317°
2026-05-05 19:59 43.66120 1.32966 2962 ft 168 kts 320°
2026-05-05 20:00 43.67113 1.31931 3461 ft 190 kts 322°
2026-05-05 20:00 43.68232 1.30812 3994 ft 211 kts 323°
2026-05-05 20:00 43.69615 1.29884 4583 ft 235 kts 346°
2026-05-05 20:00 43.71330 1.29980 5137 ft 261 kts 15°
2026-05-05 20:01 43.72911 1.31326 6009 ft 274 kts 44°
2026-05-05 20:01 43.73895 1.33576 6929 ft 282 kts 71°
2026-05-05 20:01 43.74083 1.36295 7845 ft 288 kts 96°
2026-05-05 20:01 43.73747 1.39045 8807 ft 292 kts 102°
2026-05-05 20:02 43.73375 1.41832 9764 ft 296 kts 99°
2026-05-05 20:02 43.73110 1.44701 10491 ft 309 kts 96°
2026-05-05 20:02 43.73133 1.47775 10815 ft 333 kts 79°
2026-05-05 20:02 43.73993 1.50781 11224 ft 350 kts 58°
2026-05-05 20:03 43.75418 1.53546 12026 ft 354 kts 51°
2026-05-05 20:03 43.76981 1.56217 12863 ft 359 kts 50°
2026-05-05 20:03 43.78567 1.58933 13678 ft 364 kts 51°
2026-05-05 20:03 43.80141 1.61720 14405 ft 369 kts 52°
2026-05-05 20:04 43.81689 1.64540 15119 ft 374 kts 53°
2026-05-05 20:04 43.83260 1.67451 15832 ft 379 kts 53°
2026-05-05 20:04 43.84840 1.70404 16526 ft 384 kts 53°
2026-05-05 20:04 43.86442 1.73406 17232 ft 388 kts 54°
2026-05-05 20:05 43.88059 1.76438 17939 ft 393 kts 54°
2026-05-05 20:05 43.89693 1.79505 18583 ft 397 kts 54°
2026-05-05 20:05 43.91338 1.82594 19256 ft 399 kts 54°
2026-05-05 20:05 43.92975 1.85667 19865 ft 403 kts 54°
2026-05-05 20:06 43.94651 1.88814 20486 ft 406 kts 55°
2026-05-05 20:06 43.96341 1.91993 21100 ft 410 kts 55°
2026-05-05 20:06 43.98044 1.95201 21732 ft 413 kts 56°
2026-05-05 20:06 43.99754 1.98429 22323 ft 416 kts 56°
2026-05-05 20:07 44.01452 2.01639 22906 ft 420 kts 56°
2026-05-05 20:07 44.03199 2.04946 23489 ft 423 kts 56°
2026-05-05 20:07 44.04949 2.08264 23976 ft 427 kts 56°
2026-05-05 20:07 44.06712 2.11610 24442 ft 431 kts 56°
2026-05-05 20:08 44.08493 2.14992 24885 ft 435 kts 56°
2026-05-05 20:08 44.10287 2.18404 25336 ft 439 kts 56°
2026-05-05 20:08 44.12074 2.21807 25749 ft 443 kts 56°
2026-05-05 20:08 44.13900 2.25288 25930 ft 445 kts 56°
2026-05-05 20:09 44.15726 2.28773 25963 ft 445 kts 56°
2026-05-05 20:09 44.17551 2.32259 25964 ft 445 kts 56°
2026-05-05 20:09 44.19374 2.35747 25964 ft 445 kts 56°
2026-05-05 20:09 44.21202 2.39247 25964 ft 445 kts 56°
2026-05-05 20:10 44.23003 2.42702 25961 ft 445 kts 56°
2026-05-05 20:10 44.24830 2.46210 25963 ft 445 kts 56°
2026-05-05 20:10 44.26630 2.49672 25963 ft 445 kts 56°
2026-05-05 20:10 44.28451 2.53177 25961 ft 445 kts 56°
2026-05-05 20:11 44.30278 2.56698 25963 ft 445 kts 56°
2026-05-05 20:11 44.32079 2.60172 25964 ft 446 kts 57°
2026-05-05 20:11 44.33902 2.63694 25966 ft 446 kts 57°
2026-05-05 20:11 44.35726 2.67220 25964 ft 447 kts 57°
2026-05-05 20:12 44.37545 2.70742 25961 ft 447 kts 57°
2026-05-05 20:12 44.39371 2.74282 25956 ft 447 kts 57°
2026-05-05 20:12 44.41193 2.77818 25956 ft 448 kts 57°
2026-05-05 20:12 44.43022 2.81372 25957 ft 449 kts 57°
2026-05-05 20:13 44.44822 2.84875 25954 ft 449 kts 57°
2026-05-05 20:13 44.46649 2.88431 25821 ft 450 kts 57°
2026-05-05 20:13 44.48479 2.92000 25562 ft 447 kts 57°
2026-05-05 20:13 44.50286 2.95528 25314 ft 445 kts 57°
2026-05-05 20:14 44.52093 2.99060 25054 ft 443 kts 57°
2026-05-05 20:14 44.53866 3.02532 24816 ft 442 kts 57°
2026-05-05 20:14 44.55646 3.06021 24572 ft 439 kts 57°
2026-05-05 20:14 44.57419 3.09499 24329 ft 437 kts 57°
2026-05-05 20:15 44.59184 3.12966 24084 ft 435 kts 57°
2026-05-05 20:15 44.60902 3.16449 23852 ft 432 kts 61°
2026-05-05 20:15 44.62382 3.20090 23618 ft 429 kts 64°
2026-05-05 20:15 44.63845 3.23749 23352 ft 427 kts 64°
2026-05-05 20:16 44.65291 3.27337 23075 ft 425 kts 63°
2026-05-05 20:16 44.66748 3.30955 22799 ft 423 kts 63°
2026-05-05 20:16 44.68186 3.34537 22520 ft 422 kts 63°
2026-05-05 20:16 44.69627 3.38135 22240 ft 420 kts 63°
2026-05-05 20:17 44.71042 3.41676 21978 ft 418 kts 63°
2026-05-05 20:17 44.72465 3.45245 21704 ft 416 kts 63°
2026-05-05 20:17 44.73881 3.48800 21443 ft 415 kts 63°
2026-05-05 20:17 44.75271 3.52293 21176 ft 412 kts 63°
2026-05-05 20:18 44.76673 3.55822 20913 ft 410 kts 63°
2026-05-05 20:18 44.78070 3.59343 20652 ft 409 kts 63°
2026-05-05 20:18 44.79455 3.62836 20388 ft 407 kts 63°
2026-05-05 20:18 44.80819 3.66281 20137 ft 406 kts 63°
2026-05-05 20:19 44.82191 3.69752 19883 ft 404 kts 63°
2026-05-05 20:19 44.83558 3.73212 19624 ft 403 kts 63°
2026-05-05 20:19 44.84921 3.76668 19388 ft 401 kts 63°
2026-05-05 20:19 44.86275 3.80105 19143 ft 400 kts 63°
2026-05-05 20:20 44.87629 3.83544 18892 ft 399 kts 63°
2026-05-05 20:20 44.88960 3.86931 18657 ft 398 kts 63°
2026-05-05 20:20 44.90303 3.90352 18416 ft 396 kts 63°
2026-05-05 20:20 44.91638 3.93755 18171 ft 395 kts 63°
2026-05-05 20:21 44.92949 3.97103 17903 ft 393 kts 63°
2026-05-05 20:21 44.94270 4.00481 17632 ft 392 kts 63°
2026-05-05 20:21 44.95585 4.03844 17360 ft 389 kts 63°
2026-05-05 20:21 44.96890 4.07190 17093 ft 387 kts 63°
2026-05-05 20:22 44.98173 4.10481 16822 ft 385 kts 63°
2026-05-05 20:22 44.99468 4.13808 16568 ft 384 kts 63°
2026-05-05 20:22 45.00753 4.17113 16299 ft 382 kts 63°
2026-05-05 20:22 45.01916 4.20470 16048 ft 379 kts 70°
2026-05-05 20:23 45.02776 4.23915 15796 ft 377 kts 73°
2026-05-05 20:23 45.03644 4.27483 15539 ft 376 kts 72°
2026-05-05 20:23 45.04490 4.30926 15288 ft 373 kts 72°
2026-05-05 20:23 45.05584 4.34245 15034 ft 373 kts 56°
2026-05-05 20:24 45.07384 4.36869 14928 ft 372 kts 35°
2026-05-05 20:24 45.08874 4.38089 14917 ft 374 kts 26°
2026-05-05 20:24 45.11976 4.40256 14705 ft 373 kts 26°
2026-05-05 20:24 45.14317 4.41876 14217 ft 375 kts 26°
2026-05-05 20:25 45.15881 4.42958 13760 ft 377 kts 26°
2026-05-05 20:25 45.18256 4.44608 12836 ft 382 kts 26°
2026-05-05 20:25 45.21453 4.46835 12114 ft 376 kts 26°
2026-05-05 20:25 45.22992 4.47911 11994 ft 366 kts 26°
2026-05-05 20:26 45.25233 4.49478 11917 ft 350 kts 26°
2026-05-05 20:26 45.27406 4.50999 11845 ft 357 kts 26°
2026-05-05 20:26 45.29635 4.52560 11596 ft 355 kts 26°
2026-05-05 20:26 45.31836 4.54102 11352 ft 351 kts 26°
2026-05-05 20:27 45.34025 4.55638 11097 ft 350 kts 26°
2026-05-05 20:27 45.36215 4.57176 10849 ft 349 kts 26°
2026-05-05 20:27 45.38365 4.58687 10605 ft 348 kts 26°
2026-05-05 20:27 45.40534 4.60214 10399 ft 344 kts 26°
2026-05-05 20:28 45.42654 4.61706 10291 ft 333 kts 26°
2026-05-05 20:28 45.44697 4.63147 10173 ft 320 kts 26°
2026-05-05 20:28 45.46638 4.64515 9959 ft 308 kts 26°
2026-05-05 20:28 45.48520 4.65843 9490 ft 300 kts 26°
2026-05-05 20:29 45.50362 4.67146 9284 ft 295 kts 26°
2026-05-05 20:29 45.52102 4.68377 9162 ft 298 kts 26°
2026-05-05 20:29 45.53958 4.69689 9037 ft 299 kts 26°
2026-05-05 20:29 45.55819 4.71007 8901 ft 296 kts 26°
2026-05-05 20:30 45.57648 4.72302 8775 ft 295 kts 26°
2026-05-05 20:30 45.59491 4.73609 8608 ft 295 kts 26°
2026-05-05 20:30 45.61336 4.74919 8166 ft 297 kts 26°
2026-05-05 20:30 45.63205 4.76246 7326 ft 304 kts 26°
2026-05-05 20:31 45.65102 4.77594 6385 ft 314 kts 26°
2026-05-05 20:31 45.67079 4.78999 5610 ft 315 kts 26°
2026-05-05 20:31 45.69009 4.80374 5239 ft 301 kts 26°
2026-05-05 20:31 45.70833 4.81675 5067 ft 282 kts 26°
2026-05-05 20:32 45.72532 4.82887 5011 ft 277 kts 25°
2026-05-05 20:32 45.74266 4.84123 5007 ft 277 kts 26°
2026-05-05 20:32 45.75980 4.85345 5005 ft 276 kts 26°
2026-05-05 20:32 45.77702 4.86574 5001 ft 276 kts 26°
2026-05-05 20:33 45.79421 4.87803 5002 ft 276 kts 26°
2026-05-05 20:33 45.81117 4.89016 4969 ft 272 kts 26°
2026-05-05 20:33 45.82781 4.90208 4862 ft 258 kts 26°
2026-05-05 20:33 45.84345 4.91330 4703 ft 243 kts 25°
2026-05-05 20:34 45.85810 4.92381 4477 ft 234 kts 26°
2026-05-05 20:34 45.87229 4.93398 4357 ft 233 kts 26°
2026-05-05 20:34 45.88730 4.94472 4210 ft 238 kts 26°
2026-05-05 20:34 45.90173 4.95508 4092 ft 224 kts 26°
2026-05-05 20:35 45.91498 4.96535 3978 ft 216 kts 38°
2026-05-05 20:35 45.92389 4.98250 3778 ft 217 kts 73°
2026-05-05 20:35 45.92607 5.00409 3650 ft 219 kts 88°
2026-05-05 20:35 45.92685 5.02562 3518 ft 216 kts 89°
2026-05-05 20:36 45.92517 5.04653 3374 ft 211 kts 115°
2026-05-05 20:36 45.91585 5.06211 3273 ft 202 kts 149°
2026-05-05 20:36 45.90332 5.06959 3098 ft 191 kts 168°
2026-05-05 20:36 45.89016 5.07268 3026 ft 193 kts 175°
2026-05-05 20:37 45.87682 5.07439 3024 ft 192 kts 177°
2026-05-05 20:37 45.86352 5.07601 3027 ft 192 kts 176°
2026-05-05 20:37 45.85016 5.07767 3028 ft 192 kts 177°
2026-05-05 20:37 45.83728 5.07926 2892 ft 182 kts 177°
2026-05-05 20:38 45.82499 5.08077 2635 ft 171 kts 177°
2026-05-05 20:38 45.81372 5.08217 2417 ft 154 kts 177°
2026-05-05 20:38 45.80320 5.08345 2215 ft 145 kts 176°
2026-05-05 20:38 45.79357 5.08464 2023 ft 136 kts 176°
2026-05-05 20:39 45.78416 5.08579 1843 ft 138 kts 176°
2026-05-05 20:39 45.77451 5.08698 1638 ft 139 kts 175°
2026-05-05 20:39 45.76486 5.08816 1440 ft 140 kts 175°
2026-05-05 20:39 45.75514 5.08936 1232 ft 140 kts 175°
2026-05-05 20:40 45.74545 5.09055 1034 ft 139 kts 175°
2026-05-05 20:40 45.73585 5.09173 855 ft 139 kts 175°
2026-05-05 20:40 45.72677 5.09296 803 ft 116 kts 176°
2026-05-05 20:40 45.72164 5.09344 806 ft 47 kts 176°
2026-05-05 20:41 45.71924 5.09369 808 ft 20 kts 181°
2026-05-05 20:41 45.71786 5.09336 808 ft 20 kts 200°
2026-05-05 20:41 45.71682 5.09274 805 ft 0 kts 212°
2026-05-05 20:41 45.71665 5.09258 804 ft 5 kts 217°
2026-05-05 20:42 45.71636 5.09204 804 ft 8 kts 251°
2026-05-05 20:42 45.71628 5.09123 805 ft 0 kts 266°
2026-05-05 20:42 45.71628 5.09119 805 ft 1 kts 266°
2026-05-05 20:42 45.71627 5.09100 805 ft 2 kts 266°